1 Minute Report
Date Time Wind Direction Wind Speed Wind Gust Wind Variable Altimeter Temperature Dewpoint Relative Humidity Visibility Ceiling Precip Present Weather Density Alt Wind Chill Heat Index
18/11/19 21:49 000 00 N/A N/A 30.01 34(F), 1(C) 33(F), 1(C) 100% 7 BKN013 OVC020 N/A Heavy Rain N/A 34 F N/A 5009
18/11/19 21:48 000 00 N/A N/A 30.01 34(F), 1(C) 33(F), 1(C) 100% 7 BKN013 OVC020 N/A Light Rain N/A 34 F N/A 5008
18/11/19 21:47 000 00 N/A N/A 30.01 34(F), 1(C) 33(F), 1(C) 100% 7 BKN013 OVC020 N/A Light Rain N/A 34 F N/A 5007
18/11/19 21:46 000 00 N/A N/A 30.01 34(F), 1(C) 33(F), 1(C) 100% 7 BKN013 OVC020 N/A Rain N/A 34 F N/A 5006
18/11/19 21:45 000 00 N/A N/A 30.01 34(F), 1(C) 33(F), 1(C) 100% 7 SCT013 OVC020 N/A Rain N/A 34 F N/A 5005
18/11/19 21:44 000 00 N/A N/A 30.01 34(F), 1(C) 33(F), 1(C) 100% 7 SCT013 OVC020 N/A Rain N/A 34 F N/A 5004
18/11/19 21:43 000 00 N/A N/A 30.01 34(F), 1(C) 33(F), 1(C) 100% 7 SCT013 OVC020 N/A Rain N/A 34 F N/A 5003
18/11/19 21:42 000 00 N/A N/A 30.01 34(F), 1(C) 33(F), 1(C) 100% 7 SCT013 OVC020 N/A Rain N/A 34 F N/A 5002
18/11/19 21:41 000 00 N/A N/A 30.01 35(F), 2(C) 33(F), 1(C) 93% 7 SCT013 OVC020 N/A Light Rain N/A 35 F N/A 5001
18/11/19 21:40 000 00 N/A N/A 30.01 35(F), 2(C) 34(F), 1(C) 93% 10 SCT013 OVC020 N/A Light Rain N/A 35 F N/A 5000
18/11/19 21:39 000 00 N/A N/A 30.01 35(F), 2(C) 34(F), 1(C) 93% 10 SCT013 OVC020 N/A Light Rain N/A 35 F N/A 4999
18/11/19 21:38 000 00 N/A N/A 30.01 35(F), 2(C) 34(F), 1(C) 93% 10 SCT013 OVC020 N/A Light Rain N/A 35 F N/A 4998
18/11/19 21:37 000 00 N/A N/A 30.01 35(F), 2(C) 34(F), 1(C) 93% 10 SCT013 OVC020 N/A Rain N/A 35 F N/A 4997
18/11/19 21:36 000 00 N/A N/A 30.01 35(F), 2(C) 34(F), 1(C) 93% 10 SCT013 OVC020 N/A Rain N/A 35 F N/A 4996
18/11/19 21:35 000 00 N/A N/A 30.01 35(F), 2(C) 33(F), 1(C) 93% 10 SCT013 OVC020 N/A Light Rain N/A 35 F N/A 4995
18/11/19 21:34 000 00 N/A N/A 30.01 35(F), 2(C) 33(F), 1(C) 93% 10 SCT013 OVC020 N/A Light Rain N/A 35 F N/A 4994
18/11/19 21:33 000 00 N/A N/A 30.01 35(F), 2(C) 33(F), 1(C) 93% 10 SCT013 OVC020 N/A Light Rain N/A 35 F N/A 4993
18/11/19 21:32 000 00 N/A N/A 30.01 35(F), 2(C) 33(F), 1(C) 93% 10 SCT013 OVC020 N/A Light Rain N/A 35 F N/A 4992
18/11/19 21:31 000 00 N/A N/A 30.01 35(F), 2(C) 33(F), 1(C) 93% 10 OVC020 N/A Light Rain N/A 35 F N/A 4991
18/11/19 21:30 000 00 N/A N/A 30.01 35(F), 2(C) 33(F), 1(C) 93% 10 OVC020 N/A Light Rain N/A 35 F N/A 4990
18/11/19 21:29 000 00 N/A N/A 30.01 35(F), 2(C) 33(F), 1(C) 93% 10 OVC020 N/A Light Rain N/A 35 F N/A 4989
18/11/19 21:28 000 00 N/A N/A 30.01 35(F), 2(C) 33(F), 1(C) 93% 10 OVC020 N/A Light Rain N/A 35 F N/A 4988
18/11/19 21:27 000 00 N/A N/A 30.01 35(F), 2(C) 33(F), 1(C) 93% 10 OVC020 N/A Light Rain N/A 35 F N/A 4987
18/11/19 21:26 000 00 N/A N/A 30.01 35(F), 2(C) 33(F), 1(C) 93% 10 OVC020 N/A Light Rain N/A 35 F N/A 4986
18/11/19 21:25 000 00 N/A N/A 30.01 35(F), 2(C) 33(F), 1(C) 93% 10 OVC020 N/A Light Rain N/A 35 F N/A 4985
18/11/19 21:24 000 00 N/A N/A 30.01 35(F), 2(C) 33(F), 1(C) 93% 10 OVC020 N/A Light Rain N/A 35 F N/A 4984
18/11/19 21:23 000 00 N/A N/A 30.01 35(F), 2(C) 33(F), 1(C) 93% 10 OVC020 N/A Light Rain N/A 35 F N/A 4983
18/11/19 21:22 000 00 N/A N/A 30.01 35(F), 2(C) 33(F), 1(C) 93% 10 OVC020 N/A Light Rain N/A 35 F N/A 4982
18/11/19 21:21 000 00 N/A N/A 30.01 35(F), 2(C) 33(F), 1(C) 93% 10 OVC020 N/A Light Rain N/A 35 F N/A 4981
18/11/19 21:20 000 00 N/A N/A 30.01 35(F), 2(C) 33(F), 1(C) 93% 10 OVC020 N/A Light Rain N/A 35 F N/A 4980
18/11/19 21:19 000 00 N/A N/A 30.01 35(F), 2(C) 33(F), 1(C) 93% 10 OVC020 N/A Light Rain N/A 35 F N/A 4979
18/11/19 21:18 000 00 N/A N/A 30.01 35(F), 2(C) 33(F), 1(C) 93% 10 OVC020 N/A Rain N/A 35 F N/A 4978
18/11/19 21:17 000 00 N/A N/A 30.01 35(F), 2(C) 33(F), 1(C) 93% 10 OVC020 N/A Rain N/A 35 F N/A 4977
18/11/19 21:16 000 00 N/A N/A 30.01 35(F), 2(C) 33(F), 1(C) 93% 10 OVC020 N/A Rain N/A 35 F N/A 4976
18/11/19 21:15 000 00 N/A N/A 30.01 35(F), 2(C) 33(F), 1(C) 93% 10 OVC020 N/A Rain N/A 35 F N/A 4975
18/11/19 21:14 000 00 N/A N/A 30.01 35(F), 2(C) 33(F), 1(C) 93% 10 OVC020 N/A Rain N/A 35 F N/A 4974
18/11/19 21:13 000 00 N/A N/A 30.01 35(F), 2(C) 33(F), 1(C) 93% 10 OVC020 N/A Rain N/A 35 F N/A 4973
18/11/19 21:12 000 00 N/A N/A 30.01 35(F), 2(C) 33(F), 1(C) 93% 10 OVC020 N/A Light Rain N/A 35 F N/A 4972
18/11/19 21:11 000 00 N/A N/A 30.01 35(F), 2(C) 33(F), 1(C) 93% 10 OVC020 N/A N/A N/A 35 F N/A 4971
18/11/19 21:10 000 00 N/A N/A 30.01 35(F), 2(C) 33(F), 1(C) 93% 10 OVC020 N/A N/A N/A 35 F N/A 4970
18/11/19 21:09 000 00 N/A N/A 30.01 35(F), 2(C) 33(F), 1(C) 93% 10 OVC020 N/A N/A N/A 35 F N/A 4969
18/11/19 21:08 000 00 N/A N/A 30.01 35(F), 2(C) 33(F), 1(C) 93% 10 OVC020 N/A N/A N/A 35 F N/A 4968
18/11/19 21:07 000 00 N/A N/A 30.01 35(F), 2(C) 33(F), 1(C) 93% 10 OVC020 N/A N/A N/A 35 F N/A 4967
18/11/19 21:06 000 00 N/A N/A 30.01 35(F), 2(C) 33(F), 1(C) 93% 10 OVC020 N/A N/A N/A 35 F N/A 4966
18/11/19 21:05 000 00 N/A N/A 30.01 35(F), 2(C) 33(F), 1(C) 93% 10 OVC018 N/A N/A N/A 35 F N/A 4965
18/11/19 21:04 000 00 N/A N/A 30.01 35(F), 2(C) 33(F), 1(C) 93% 10 OVC018 N/A N/A N/A 35 F N/A 4964
18/11/19 21:03 000 00 N/A N/A 30.01 35(F), 2(C) 33(F), 1(C) 93% 10 OVC018 N/A N/A N/A 35 F N/A 4963
18/11/19 21:02 000 00 N/A N/A 30.01 35(F), 2(C) 33(F), 1(C) 93% 10 OVC018 N/A N/A N/A 35 F N/A 4962
18/11/19 21:01 000 00 N/A N/A 30.01 35(F), 2(C) 33(F), 1(C) 93% 10 OVC018 N/A N/A N/A 35 F N/A 4961
18/11/19 21:00 000 00 N/A N/A 30.01 35(F), 2(C) 33(F), 1(C) 93% 10 OVC018 N/A N/A N/A 35 F N/A 4960
18/11/19 20:59 000 00 N/A N/A 30.01 35(F), 2(C) 33(F), 1(C) 93% 10 OVC018 N/A N/A N/A 35 F N/A 4959
18/11/19 20:58 000 00 N/A N/A 30.01 35(F), 2(C) 33(F), 1(C) 93% 10 OVC018 N/A N/A N/A 35 F N/A 4958
18/11/19 20:57 000 00 N/A N/A 30.01 35(F), 2(C) 33(F), 1(C) 93% 10 OVC018 N/A N/A N/A 35 F N/A 4957
18/11/19 20:56 000 00 N/A N/A 30.01 35(F), 2(C) 33(F), 1(C) 93% 10 OVC018 N/A N/A N/A 35 F N/A 4956
18/11/19 20:55 000 00 N/A N/A 30.01 35(F), 2(C) 33(F), 1(C) 93% 10 BKN018 OVC050 N/A N/A N/A 35 F N/A 4955
18/11/19 20:54 000 00 N/A N/A 30.01 35(F), 2(C) 33(F), 1(C) 93% 10 BKN018 OVC050 N/A N/A N/A 35 F N/A 4954
18/11/19 20:53 000 00 N/A N/A 30.01 35(F), 2(C) 33(F), 1(C) 93% 10 BKN018 OVC050 N/A N/A N/A 35 F N/A 4953
18/11/19 20:52 000 00 N/A N/A 30.00 35(F), 2(C) 33(F), 1(C) 93% 10 BKN018 OVC050 N/A N/A N/A 35 F N/A 4952
18/11/19 20:51 000 00 N/A N/A 30.00 35(F), 2(C) 33(F), 1(C) 93% 10 BKN018 BKN029 OVC050 N/A N/A N/A 35 F N/A 4951
18/11/19 20:50 000 00 N/A N/A 30.00 35(F), 2(C) 32(F), 0(C) 87% 10 BKN018 BKN029 OVC050 N/A N/A N/A 35 F N/A 4950
18/11/19 20:49 000 00 N/A N/A 30.00 35(F), 2(C) 32(F), 0(C) 87% 10 BKN018 BKN029 OVC050 N/A N/A N/A 35 F N/A 4949
18/11/19 20:48 000 00 N/A N/A 30.00 35(F), 2(C) 32(F), 0(C) 87% 10 BKN018 BKN029 OVC050 N/A N/A N/A 35 F N/A 4948
18/11/19 20:47 000 00 N/A N/A 30.00 35(F), 2(C) 32(F), 0(C) 87% 10 BKN018 BKN029 OVC050 N/A N/A N/A 35 F N/A 4947
18/11/19 20:46 000 00 N/A N/A 30.00 35(F), 2(C) 32(F), 0(C) 87% 10 BKN018 BKN029 OVC050 N/A N/A N/A 35 F N/A 4946
18/11/19 20:45 000 00 N/A N/A 30.00 35(F), 2(C) 32(F), 0(C) 87% 10 BKN020 BKN029 OVC050 N/A N/A N/A 35 F N/A 4945
18/11/19 20:44 000 00 N/A N/A 30.00 35(F), 2(C) 32(F), 0(C) 87% 10 BKN020 BKN029 OVC050 N/A N/A N/A 35 F N/A 4944
18/11/19 20:43 000 00 N/A N/A 30.00 35(F), 2(C) 32(F), 0(C) 87% 10 BKN020 BKN029 OVC050 N/A N/A N/A 35 F N/A 4943
18/11/19 20:42 000 00 N/A N/A 30.01 35(F), 2(C) 32(F), 0(C) 87% 10 BKN020 BKN029 OVC050 N/A N/A N/A 35 F N/A 4942
18/11/19 20:41 000 00 N/A N/A 30.01 35(F), 2(C) 32(F), 0(C) 87% 10 BKN020 BKN029 BKN050 N/A N/A N/A 35 F N/A 4941
18/11/19 20:40 000 00 N/A N/A 30.00 35(F), 2(C) 32(F), 0(C) 87% 10 BKN020 BKN029 BKN050 N/A N/A N/A 35 F N/A 4940
18/11/19 20:39 000 00 N/A N/A 30.00 35(F), 2(C) 32(F), 0(C) 87% 10 BKN020 BKN029 BKN050 N/A N/A N/A 35 F N/A 4939
18/11/19 20:38 000 00 N/A N/A 30.00 35(F), 2(C) 32(F), 0(C) 87% 10 BKN020 BKN029 BKN050 N/A N/A N/A 35 F N/A 4938
18/11/19 20:37 000 00 N/A N/A 30.00 35(F), 2(C) 32(F), 0(C) 87% 10 BKN020 BKN029 BKN050 N/A N/A N/A 35 F N/A 4937
18/11/19 20:36 000 00 N/A N/A 30.00 35(F), 2(C) 32(F), 0(C) 87% 10 BKN020 BKN029 BKN050 N/A N/A N/A 35 F N/A 4936
18/11/19 20:35 000 00 N/A N/A 30.00 35(F), 2(C) 32(F), 0(C) 87% 10 BKN020 BKN029 BKN050 N/A N/A N/A 35 F N/A 4935
18/11/19 20:34 000 00 N/A N/A 30.00 35(F), 2(C) 32(F), 0(C) 87% 10 BKN020 BKN029 BKN050 N/A N/A N/A 35 F N/A 4934
18/11/19 20:33 000 00 N/A N/A 30.01 35(F), 2(C) 32(F), 0(C) 87% 10 BKN020 BKN029 BKN050 N/A N/A N/A 35 F N/A 4933
18/11/19 20:32 000 00 N/A N/A 30.01 35(F), 2(C) 32(F), 0(C) 87% 10 BKN020 BKN029 BKN050 N/A N/A N/A 35 F N/A 4932
18/11/19 20:31 000 00 N/A N/A 30.01 35(F), 2(C) 32(F), 0(C) 87% 10 BKN020 BKN029 BKN050 N/A N/A N/A 35 F N/A 4931
18/11/19 20:30 000 00 N/A N/A 30.01 35(F), 2(C) 32(F), 0(C) 87% 10 BKN018 BKN029 BKN050 N/A N/A N/A 35 F N/A 4930
18/11/19 20:29 000 00 N/A N/A 30.01 35(F), 2(C) 32(F), 0(C) 87% 10 BKN018 BKN029 BKN050 N/A N/A N/A 35 F N/A 4929
18/11/19 20:28 000 00 N/A N/A 30.00 35(F), 2(C) 32(F), 0(C) 87% 10 BKN018 BKN029 BKN050 N/A N/A N/A 35 F N/A 4928
18/11/19 20:27 000 00 N/A N/A 30.00 35(F), 2(C) 32(F), 0(C) 87% 10 BKN018 BKN029 BKN060 N/A N/A N/A 35 F N/A 4927
18/11/19 20:26 000 00 N/A N/A 30.01 35(F), 2(C) 32(F), 0(C) 87% 10 BKN018 BKN029 BKN060 N/A Light Drizzle N/A 35 F N/A 4926
18/11/19 20:25 000 00 N/A N/A 30.01 35(F), 2(C) 31(F), -1(C) 80% 10 BKN018 BKN029 BKN060 N/A Light Drizzle N/A 35 F N/A 4925
18/11/19 20:24 000 00 N/A N/A 30.01 35(F), 2(C) 31(F), -1(C) 80% 10 BKN018 BKN029 BKN060 N/A Light Drizzle N/A 35 F N/A 4924
18/11/19 20:23 000 00 N/A N/A 30.01 35(F), 2(C) 31(F), -1(C) 80% 10 BKN018 BKN029 BKN060 N/A Light Drizzle N/A 35 F N/A 4923
18/11/19 20:22 000 00 N/A N/A 30.01 35(F), 2(C) 31(F), -1(C) 80% 10 BKN018 BKN060 N/A Light Drizzle N/A 35 F N/A 4922
18/11/19 20:21 000 00 N/A N/A 30.01 35(F), 2(C) 31(F), -1(C) 80% 10 BKN018 N/A Light Drizzle N/A 35 F N/A 4921
18/11/19 20:20 000 00 N/A N/A 30.01 35(F), 2(C) 31(F), -1(C) 80% 10 BKN018 N/A Light Drizzle N/A 35 F N/A 4920
18/11/19 20:19 000 00 N/A N/A 30.01 35(F), 2(C) 31(F), -1(C) 80% 10 BKN018 N/A Light Rain N/A 35 F N/A 4919
18/11/19 20:18 000 00 N/A N/A 30.01 36(F), 2(C) 31(F), -1(C) 80% 10 BKN018 N/A Light Rain N/A 36 F N/A 4918
18/11/19 20:17 000 00 N/A N/A 30.01 36(F), 2(C) 32(F), 0(C) 87% 10 BKN018 N/A Light Rain N/A 36 F N/A 4917
18/11/19 20:16 000 00 N/A N/A 30.01 36(F), 2(C) 32(F), 0(C) 87% 10 BKN018 N/A Light Rain N/A 36 F N/A 4916
18/11/19 20:15 000 00 N/A N/A 30.01 36(F), 2(C) 32(F), 0(C) 87% 10 BKN018 N/A Light Rain N/A 36 F N/A 4915
18/11/19 20:14 000 00 N/A N/A 30.01 36(F), 2(C) 32(F), 0(C) 87% 10 BKN018 N/A Light Rain N/A 36 F N/A 4914
18/11/19 20:13 000 00 N/A N/A 30.01 36(F), 2(C) 31(F), -1(C) 80% 10 OVC018 N/A Light Rain N/A 36 F N/A 4913
18/11/19 20:12 000 00 N/A N/A 30.01 36(F), 2(C) 31(F), -1(C) 80% 10 OVC018 N/A Light Rain N/A 36 F N/A 4912
18/11/19 20:11 000 00 N/A N/A 30.01 36(F), 2(C) 31(F), -1(C) 80% 10 OVC018 N/A Light Rain N/A 36 F N/A 4911
18/11/19 20:10 000 00 N/A N/A 30.01 36(F), 2(C) 31(F), -1(C) 80% 10 OVC018 N/A Light Rain N/A 36 F N/A 4910
18/11/19 20:09 000 00 N/A N/A 30.01 36(F), 2(C) 31(F), -1(C) 80% 10 OVC018 N/A Light Rain N/A 36 F N/A 4909
18/11/19 20:08 000 00 N/A N/A 30.01 37(F), 3(C) 32(F), 0(C) 81% 10 OVC018 N/A Light Rain N/A 37 F N/A 4908
18/11/19 20:07 000 00 N/A N/A 30.01 37(F), 3(C) 32(F), 0(C) 81% 10 OVC018 N/A Light Rain N/A 37 F N/A 4907
18/11/19 20:06 000 00 N/A N/A 30.01 37(F), 3(C) 32(F), 0(C) 81% 7 BKN018 OVC025 N/A Light Rain N/A 37 F N/A 4906
18/11/19 20:05 000 00 N/A N/A 30.01 37(F), 3(C) 32(F), 0(C) 81% 7 BKN018 OVC027 N/A Light Rain N/A 37 F N/A 4905
18/11/19 20:04 000 00 N/A N/A 30.01 37(F), 3(C) 32(F), 0(C) 81% 7 BKN018 OVC027 N/A Light Rain N/A 37 F N/A 4904
18/11/19 20:03 000 00 N/A N/A 30.01 37(F), 3(C) 32(F), 0(C) 81% 7 BKN018 OVC027 N/A Light Rain N/A 37 F N/A 4903
18/11/19 20:02 000 00 N/A N/A 30.01 37(F), 3(C) 32(F), 0(C) 81% 7 BKN018 OVC027 N/A Light Rain N/A 37 F N/A 4902
18/11/19 20:01 000 00 N/A N/A 30.01 37(F), 3(C) 32(F), 0(C) 81% 7 BKN018 OVC027 N/A Light Rain N/A 37 F N/A 4901
18/11/19 20:00 000 00 N/A N/A 30.01 37(F), 3(C) 32(F), 0(C) 81% 7 BKN018 OVC027 N/A Light Rain N/A 37 F N/A 4900
18/11/19 19:59 000 00 N/A N/A 30.01 37(F), 3(C) 32(F), 0(C) 81% 7 BKN018 OVC027 N/A Light Rain N/A 37 F N/A 4899
18/11/19 19:58 000 00 N/A N/A 30.01 37(F), 3(C) 32(F), 0(C) 81% 7 BKN018 OVC027 N/A Light Drizzle N/A 37 F N/A 4898
18/11/19 19:57 000 00 N/A N/A 30.01 37(F), 3(C) 32(F), 0(C) 81% 7 BKN018 OVC027 N/A Light Drizzle N/A 37 F N/A 4897
18/11/19 19:56 000 00 N/A N/A 30.01 37(F), 3(C) 32(F), 0(C) 81% 7 BKN018 OVC027 N/A Light Rain N/A 37 F N/A 4896
18/11/19 19:55 000 00 N/A N/A 30.01 37(F), 3(C) 32(F), 0(C) 81% 7 BKN018 OVC027 N/A Light Rain N/A 37 F N/A 4895
18/11/19 19:54 000 00 N/A N/A 30.01 37(F), 3(C) 32(F), 0(C) 81% 10 BKN020 OVC027 N/A Light Rain N/A 37 F N/A 4894
18/11/19 19:53 000 00 N/A N/A 30.01 37(F), 3(C) 32(F), 0(C) 81% 10 BKN020 OVC027 N/A Light Rain N/A 37 F N/A 4893
18/11/19 19:52 000 00 N/A N/A 30.01 37(F), 3(C) 32(F), 0(C) 81% 10 BKN020 OVC027 N/A Light Rain N/A 37 F N/A 4892
18/11/19 19:51 000 00 N/A N/A 30.01 37(F), 3(C) 32(F), 0(C) 81% 10 SCT020 OVC027 N/A Light Rain N/A 37 F N/A 4891
18/11/19 19:50 000 00 N/A N/A 30.02 37(F), 3(C) 32(F), 0(C) 81% 10 SCT020 OVC027 N/A Light Rain N/A 37 F N/A 4890
18/11/19 19:49 000 00 N/A N/A 30.02 37(F), 3(C) 32(F), 0(C) 81% 10 SCT020 OVC027 N/A Light Rain N/A 37 F N/A 4889